EW2602 Weather Reports


time (UTC)temp
C
wind
direction
speed
KPH
gust
KPH
rain 1hr
cm
rain 24hr
cm
rain mn
cm
humidity
%
barometer
mb
20211017151611 11 62 0.0 1.6 0.00 0.03 0.00 65 1025.5
20211017150116 11 11 0.0 4.8 0.00 0.03 0.00 65 1025.5
20211017144601 10 54 0.0 4.8 0.00 0.03 0.00 68 1025.3
20211017143101 10 303 0.0 0.0 0.00 0.03 0.00 71 1025.2
20211017141604 9 5 0.0 0.0 0.00 0.03 0.00 72 1025.1
20211017140052 9 350 0.0 1.6 0.00 0.03 0.00 71 1024.9
20211017134646 8 5 0.0 0.0 0.00 0.03 0.00 71 1024.9
20211017133030 8 37 0.0 0.0 0.00 0.03 0.00 60 1024.8
20211017131600 7 26 0.0 0.0 0.00 0.03 0.00 53 1024.8
20211017130045 7 24 0.0 1.6 0.00 0.03 0.00 44 1024.7
20211017124532 6 355 0.0 0.0 0.00 0.03 0.00 36 1024.5
20211017121555 6 355 0.0 0.0 0.00 0.03 0.00 31 1024.3
20211017120020 6 355 0.0 0.0 0.00 0.03 0.00 30 1024.2
20211017114507 6 355 0.0 0.0 0.00 0.03 0.00 33 1024.1
20211017113011 6 355 0.0 0.0 0.00 0.03 0.00 34 1024.0
20211017111507 6 355 0.0 0.0 0.00 0.03 0.00 36 1023.8
20211017104643 6 355 0.0 0.0 0.00 0.10 0.00 41 1023.6
20211017103301 6 355 0.0 0.0 0.00 0.10 0.00 43 1023.6
20211017101700 7 355 0.0 0.0 0.00 0.10 0.00 45 1023.4
20211017100154 7 355 0.0 0.0 0.00 0.10 0.00 41 1023.3
20211017094705 7 355 0.0 0.0 0.00 0.13 0.00 44 1023.2
20211017093312 7 355 0.0 0.0 0.00 0.13 0.00 46 1023.2
20211017091619 7 355 0.0 0.0 0.00 0.13 0.00 48 1023.2
20211017090123 7 355 0.0 0.0 0.00 0.13 0.00 49 1023.1
20211017084659 7 355 0.0 0.0 0.00 0.36 0.00 45 1023.1
20211017083053 7 355 0.0 0.0 0.00 0.36 0.00 42 1023.0
20211017081607 7 355 0.0 0.0 0.00 0.36 0.00 39 1022.9
20211017080138 7 355 0.0 0.0 0.00 0.36 0.00 37 1022.8
20211017074610 7 55 0.0 0.0 0.00 0.48 0.00 35 1022.8
20211017073157 7 55 0.0 0.0 0.00 0.48 0.00 43 1022.9
20211017071618 7 55 0.0 0.0 0.00 0.48 0.00 48 1023.0
20211017070118 7 55 0.0 0.0 0.00 0.48 0.00 44 1022.8
20211017064600 7 55 0.0 0.0 0.00 0.48 0.00 47 1022.7
20211017063119 7 55 0.0 1.6 0.00 0.48 0.00 49 1022.7
20211017061550 7 55 0.0 0.0 0.00 0.48 0.00 49 1022.5
20211017060036 7 55 0.0 1.6 0.00 0.48 0.00 51 1022.3
20211017054601 7 55 0.0 0.0 0.00 0.48 0.00 46 1022.2
20211017053049 7 55 0.0 0.0 0.00 0.48 0.00 38 1022.2
20211017051544 7 55 0.0 0.0 0.00 0.48 0.00 37 1022.2
20211017050100 7 55 0.0 0.0 0.00 0.48 0.00 50 1022.2
20211017044522 8 55 0.0 0.0 0.00 0.48 0.48 56 1022.2
20211017043023 8 55 0.0 0.0 0.00 0.48 0.48 63 1022.2
20211017041530 8 55 0.0 0.0 0.00 0.48 0.48 57 1022.2
20211017040007 8 55 0.0 0.0 0.00 0.48 0.48 57 1022.1
20211017034502 8 55 0.0 0.0 0.00 0.48 0.48 59 1022.2
20211017033212 8 55 0.0 0.0 0.00 0.48 0.48 59 1022.2
20211017031635 8 55 0.0 0.0 0.00 0.48 0.48 60 1022.1
20211017030150 9 55 0.0 0.0 0.00 0.48 0.48 62 1022.1
20211017024604 9 55 0.0 0.0 0.00 0.48 0.48 60 1021.9
20211017023143 9 55 0.0 0.0 0.00 0.48 0.48 60 1021.8
20211017021617 9 55 0.0 0.0 0.00 0.48 0.48 63 1021.8
20211017020048 9 55 0.0 0.0 0.00 0.48 0.48 63 1021.5
20211017014548 9 55 0.0 0.0 0.00 0.48 0.48 66 1021.6
20211017013045 10 55 0.0 0.0 0.00 0.48 0.48 69 1021.4
20211017011520 10 55 0.0 0.0 0.00 0.48 0.48 68 1021.3
20211017010013 10 55 0.0 0.0 0.00 0.48 0.48 70 1021.2
20211017004510 10 55 0.0 0.0 0.00 0.48 0.48 71 1021.1
20211017003005 10 55 0.0 0.0 0.00 0.48 0.48 71 1020.9
20211017001703 11 55 0.0 0.0 0.00 0.48 0.48 71 1020.8
20211017000132 11 55 0.0 0.0 0.00 0.48 0.48 70 1020.8
20211016234630 11 340 0.0 0.0 0.00 0.48 0.48 70 1020.5
20211016233053 11 340 0.0 0.0 0.00 0.48 0.48 68 1020.2
20211016231545 12 347 0.0 0.0 0.00 0.48 0.48 68 1020.0
20211016230149 12 333 0.0 0.0 0.00 0.48 0.48 66 1019.9
20211016224549 13 333 0.0 0.0 0.00 0.48 0.48 62 1019.9
20211016223109 13 331 0.0 0.0 0.00 0.48 0.48 61 1019.7
20211016221536 13 341 0.0 0.0 0.00 0.48 0.48 59 1019.6
20211016220025 13 333 0.0 4.8 0.00 0.48 0.48 56 1019.4
20211016214537 14 289 0.0 0.0 0.00 0.48 0.48 56 1019.2
20211016213016 14 335 0.0 8.0 0.00 0.48 0.48 57 1019.1
20211016211509 14 348 0.0 0.0 0.00 0.48 0.48 60 1019.0
20211016210028 15 301 0.0 4.8 0.00 0.48 0.48 55 1019.0
20211016203139 15 338 1.6 9.7 0.00 0.48 0.48 55 1018.7
20211016201642 15 261 0.0 0.0 0.00 0.48 0.48 53 1018.7
20211016200115 15 313 0.0 4.8 0.00 0.48 0.48 58 1018.6
20211016194554 15 316 0.0 9.7 0.00 0.48 0.48 58 1018.5
20211016193053 15 294 0.0 0.0 0.00 0.48 0.48 57 1018.5
20211016191622 15 344 0.0 1.6 0.00 0.48 0.48 56 1018.5
20211016190119 15 311 0.0 0.0 0.00 0.48 0.48 58 1018.4
20211016184527 15 319 0.0 0.0 0.00 0.48 0.48 58 1018.4
20211016183028 15 304 0.0 14.5 0.00 0.48 0.48 59 1018.5
20211016181524 15 350 0.0 9.7 0.00 0.48 0.48 61 1018.5
20211016180021 15 73 0.0 1.6 0.03 0.48 0.48 62 1018.7
20211016174525 15 355 1.6 12.9 0.03 0.48 0.48 65 1018.7
20211016173006 15 344 0.0 0.0 0.03 0.48 0.48 67 1018.9
20211016171801 15 258 0.0 4.8 0.03 0.48 0.48 68 1018.9
20211016171614 15 124 0.0 4.8 0.03 0.48 0.48 68 1019.0
20211016170117 14 325 0.0 4.8 0.00 0.46 0.46 69 1018.8
20211016164734 14 323 0.0 12.9 0.00 0.46 0.46 70 1019.0
20211016163101 13 45 1.6 9.7 0.00 0.46 0.46 69 1019.0
20211016161553 13 5 1.6 12.9 0.00 0.46 0.46 65 1019.0
20211016160110 13 324 1.6 14.5 0.00 0.46 0.46 65 1018.9
20211016154554 13 323 0.0 3.2 0.00 0.46 0.46 49 1018.9
20211016153040 12 52 1.6 6.4 0.00 0.46 0.46 39 1018.8